Regional Weather Roundup
Issued by NWS

Home | Current Version | Previous Version | Graphics & Text | Print | Product List | Glossary Off
Versions: 1 2 3 4 5 6 7 8 9 10 11 12 13 14 15 16 17 18 19 20 21 22 23 24 25 26 27 28 29 30 31 32 33 34 35 36 37 38 39 40 41 42 43 44 45 46 47 48 49 50

000
ASUS43 KBIS 241620
RWRND

NORTH DAKOTA REGIONAL WEATHER ROUNDUP
NATIONAL WEATHER SERVICE BISMARCK ND
1100 AM CDT SUN MAY 24 2015

NOTE: "FAIR" INDICATES FEW OR NO CLOUDS BELOW 12,000 FEET WITH NO
SIGNIFICANT WEATHER AND/OR OBSTRUCTIONS TO VISIBILITY.


NDZ001>003-009>011-017-241700-
NORTHWEST NORTH DAKOTA

CITY           SKY/WX    TMP DP  RH WIND       PRES   REMARKS
WILLISTON      MOSUNNY   68  47  46 E3        30.04F
MINOT          SUNNY     67  47  48 E7        30.04F
MINOT AFB      MOSUNNY   71  49  45 SE6       30.03F
$$

NDZ018>021-031>035-040>046-241700-
SOUTHWEST NORTH DAKOTA

CITY           SKY/WX    TMP DP  RH WIND       PRES   REMARKS
BISMARCK       CLOUDY    65  52  62 E12       30.02F
DICKINSON      CLOUDY    58  51  78 E10       30.02F
GARRISON         N/A     63  49  60 SE5       30.04F
HETTINGER ARPT LGT RAIN  54  52  93 E12       30.02F FOG
$$

NDZ004>008-012>016-024-026-027-054-241700-
NORTHEAST NORTH DAKOTA

CITY           SKY/WX    TMP DP  RH WIND       PRES   REMARKS
GRAND FORKS    PTSUNNY   70  47  43 SE6       30.04F
GRND FRKS AFB  MOSUNNY   70  47  44 SE7       30.04F
DEVILS LAKE    SUNNY     68  46  45 E3        30.03F
$$

NDZ022-023-025-028>030-036>039-047>053-241700-
SOUTHEAST NORTH DAKOTA

CITY           SKY/WX    TMP DP  RH WIND       PRES   REMARKS
FARGO          CLOUDY    67  48  50 E12       30.02F
JAMESTOWN      PTSUNNY   67  50  54 NE10      30.02F
$$



USA.gov is the U.S. government's official web portal to all federal, state and local government web resources and services.